KB6OQJ Weather Reports


Display with metric or nautical units.
time (UTC)temp
F
wind
direction
speed
MPH
gust
MPH
rain 1hr
in
rain 24hr
in
rain mn
in
humidity
%
barometer
mb
20240621212004 79 307 4.0 15.0 0.00 0.00 0.00 51 1007.0
20240621211004 80 310 5.0 13.0 0.00 0.00 0.00 50 1007.1
20240621210004 78 300 9.0 17.0 0.00 0.00 0.00 52 1007.2
20240621205004 79 288 9.0 14.0 0.00 0.00 0.00 51 1007.4
20240621204004 79 297 7.0 13.0 0.00 0.00 0.00 50 1007.4
20240621203004 80 291 5.0 12.0 0.00 0.00 0.00 50 1007.4
20240621202004 79 271 7.0 12.0 0.00 0.00 0.00 51 1007.5
20240621201004 79 289 3.0 13.0 0.00 0.00 0.00 51 1007.6
20240621200004 79 276 4.0 12.0 0.00 0.00 0.00 51 1007.6
20240621195004 79 276 5.0 12.0 0.00 0.00 0.00 50 1007.7
20240621193003 79 294 6.0 12.0 0.00 0.00 0.00 50 1007.8
20240621192003 79 261 3.0 10.0 0.00 0.00 0.00 47 1007.8
20240621191003 78 269 3.0 9.0 0.00 0.00 0.00 49 1007.7
20240621185003 78 269 2.0 6.0 0.00 0.00 0.00 52 1007.8
20240621183004 72 296 1.0 3.0 0.00 0.00 0.00 58 1007.9
20240621181004 69 319 0.0 5.0 0.00 0.00 0.00 61 1008.1
20240621180004 68 22 1.0 3.0 0.00 0.00 0.00 61 1008.1
20240621175004 67 73 1.0 3.0 0.00 0.00 0.00 61 1008.2
20240621174003 65 197 0.0 1.0 0.00 0.00 0.00 61 1008.4
20240621173004 64 277 0.0 1.0 0.00 0.00 0.00 60 1008.4
20240621172003 63 306 2.0 3.0 0.00 0.00 0.00 57 1008.5
20240621171003 62 26 0.0 0.0 0.00 0.00 0.00 51 1008.6
20240621170004 61 81 1.0 3.0 0.00 0.00 0.00 39 1008.7
20240621165003 59 221 0.0 0.0 0.00 0.00 0.00 17 1008.9
20240621164004 58 196 0.0 1.0 0.00 0.00 0.00 3 1009.2
20240621162005 54 85 1.0 3.0 0.00 0.00 0.00 3 1009.4
20240621161004 54 96 1.0 5.0 0.00 0.00 0.00 3 1009.5
20240621160004 53 83 1.0 3.0 0.00 0.00 0.00 3 1009.6
20240621155003 53 70 0.0 0.0 0.00 0.00 0.00 3 1009.6
20240621153003 52 85 0.0 0.0 0.00 0.00 0.00 3 1009.6
20240621152004 52 85 0.0 0.0 0.00 0.00 0.00 3 1009.6
20240621151004 52 85 0.0 2.0 0.00 0.00 0.00 3 1009.5
20240621150003 52 89 0.0 3.0 0.00 0.00 0.00 3 1009.5
20240621145003 52 64 0.0 0.0 0.00 0.00 0.00 3 1009.5
20240621142004 52 0 0.0 0.0 0.00 0.00 0.00 3 1009.4
20240621141004 52 0 0.0 0.0 0.00 0.00 0.00 3 1009.5
20240621140004 52 0 0.0 0.0 0.00 0.00 0.00 3 1009.4
20240621134004 52 0 0.0 0.0 0.00 0.00 0.00 3 1009.2
20240621133004 52 0 0.0 0.0 0.00 0.00 0.00 3 1009.1
20240621132004 52 100 0.0 2.0 0.00 0.00 0.00 3 1008.6
20240621131004 52 100 0.0 2.0 0.00 0.00 0.00 3 1009.1
20240621130004 52 100 0.0 0.0 0.00 0.00 0.00 3 1009.1
20240621124004 52 101 0.0 0.0 0.00 0.00 0.00 3 1009.2
20240621122004 52 88 0.0 0.0 0.00 0.00 0.00 3 1009.0
20240621121004 52 87 0.0 0.0 0.00 0.00 0.00 3 1008.9
20240621120003 52 87 0.0 0.0 0.00 0.00 0.00 3 1008.9
20240621115003 52 88 1.0 3.0 0.00 0.00 0.00 3 1008.8
20240621114004 52 304 0.0 2.0 0.00 0.00 0.00 3 1008.8
20240621112004 52 303 0.0 0.0 0.00 0.00 0.00 3 1008.9
20240621110005 52 310 0.0 3.0 0.00 0.00 0.00 3 1008.7
20240621105004 52 347 0.0 3.0 0.00 0.00 0.00 3 1008.7
20240621103004 52 39 0.0 2.0 0.00 0.00 0.00 3 1008.6
20240621102004 52 39 2.0 3.0 0.00 0.00 0.00 3 1008.6
20240621101004 52 57 0.0 3.0 0.00 0.00 0.00 3 1008.6
20240621100003 52 53 1.0 3.0 0.00 0.00 0.00 3 1008.5
20240621095004 52 331 0.0 0.0 0.00 0.00 0.00 3 1008.6
20240621094004 52 307 0.0 0.0 0.00 0.00 0.00 3 1008.6
20240621093003 52 307 1.0 3.0 0.00 0.00 0.00 3 1008.7
20240621092004 53 334 1.0 3.0 0.00 0.00 0.00 3 1008.7
20240621091004 53 26 0.0 0.0 0.00 0.00 0.00 5 1008.7
20240621085004 53 26 0.0 0.0 0.00 0.00 0.00 7 1008.7
20240621084004 53 27 1.0 2.0 0.00 0.00 0.00 8 1008.8
20240621083004 53 20 0.0 0.0 0.00 0.00 0.00 10 1002.5
20240621082003 53 20 0.0 0.0 0.00 0.00 0.00 12 1008.8
20240621081003 53 343 0.0 0.0 0.00 0.00 0.00 14 1008.9
20240621075004 53 306 0.0 0.0 0.00 0.00 0.00 18 1007.5
20240621074003 53 306 0.0 1.0 0.00 0.00 0.00 22 1009.0
20240621073004 52 293 0.0 3.0 0.00 0.00 0.00 26 1006.2
20240621072004 52 265 0.0 0.0 0.00 0.00 0.00 29 1008.5
20240621071004 52 258 0.0 0.0 0.00 0.00 0.00 31 1006.8
20240621065004 52 258 0.0 0.0 0.00 0.00 0.00 39 1006.5
20240621064005 52 258 0.0 2.0 0.00 0.00 0.00 42 946.7
20240621063004 52 257 0.0 2.0 0.00 0.00 0.00 43 1006.0
20240621062005 52 257 0.0 2.0 0.00 0.00 0.00 44 1007.0
20240621061004 52 256 0.0 0.0 0.00 0.00 0.00 47 1007.0
20240621060003 52 255 0.0 0.0 0.00 0.00 0.00 48 1007.0
20240621055004 53 256 0.0 2.0 0.00 0.00 0.00 50 1007.0
20240621054004 53 276 0.0 0.0 0.00 0.00 0.00 52 1005.9
20240621053004 53 276 0.0 0.0 0.00 0.00 0.00 53 1005.9
20240621052003 53 276 0.0 0.0 0.00 0.00 0.00 54 1005.9
20240621045004 54 266 1.0 3.0 0.00 0.00 0.00 58 1005.9
20240621044003 55 321 0.0 5.0 0.00 0.00 0.00 59 1005.9
20240621043003 55 287 0.0 3.0 0.00 0.00 0.00 60 1005.9
20240621041004 56 281 2.0 6.0 0.00 0.00 0.00 62 1005.9
20240621040003 56 288 1.0 5.0 0.00 0.00 0.00 62 1005.9
20240621035004 57 265 1.0 3.0 0.00 0.00 0.00 64 1005.9
20240621034004 57 277 0.0 3.0 0.00 0.00 0.00 65 1005.9
20240621033004 58 282 0.0 6.0 0.00 0.00 0.00 65 1005.9
20240621032004 58 287 3.0 8.0 0.00 0.00 0.00 66 1005.9
20240621030003 59 315 2.0 12.0 0.00 0.00 0.00 66 1005.9
20240621025003 60 301 4.0 12.0 0.00 0.00 0.00 66 1005.9
20240621023004 61 293 1.0 12.0 0.00 0.00 0.00 66 1005.9
20240621021004 62 293 3.0 12.0 0.00 0.00 0.00 66 1005.9
20240621020004 62 302 2.0 12.0 0.00 0.00 0.00 67 1005.9
20240621015004 62 294 6.0 12.0 0.00 0.00 0.00 66 1005.9
20240621013004 64 279 3.0 14.0 0.00 0.00 0.00 65 1005.9
20240621010004 67 295 6.0 16.0 0.00 0.00 0.00 63 1005.9
20240621005004 68 301 4.0 13.0 0.00 0.00 0.00 61 1005.9
20240621004003 69 295 5.0 14.0 0.00 0.00 0.00 59 1005.9
20240621003004 70 286 4.0 13.0 0.00 0.00 0.00 59 1005.9
20240621002004 71 272 7.0 13.0 0.00 0.00 0.00 58 1005.9
20240621001004 71 288 5.0 14.0 0.00 0.00 0.00 58 1005.9
20240621000003 72 274 2.0 17.0 0.00 0.00 0.00 57 1005.9
20240620234004 72 308 6.0 15.0 0.00 0.00 0.00 56 1005.9
20240620233004 73 291 6.0 17.0 0.00 0.00 0.00 54 1005.6
20240620232004 73 287 3.0 14.0 0.00 0.00 0.00 55 1005.6
20240620231004 73 284 3.0 16.0 0.00 0.00 0.00 55 1008.5
20240620230003 74 294 8.0 16.0 0.00 0.00 0.00 52 1008.6
20240620225004 75 302 5.0 13.0 0.00 0.00 0.00 52 1008.6
20240620224003 76 296 7.0 15.0 0.00 0.00 0.00 51 1008.0
20240620222003 76 299 4.0 13.0 0.00 0.00 0.00 51 1007.4
20240620221003 76 298 6.0 15.0 0.00 0.00 0.00 50 1008.8
20240620220004 78 310 5.0 12.0 0.00 0.00 0.00 51 1008.9
20240620215004 76 318 6.0 13.0 0.00 0.00 0.00 50 1008.9
20240620214003 76 328 6.0 13.0 0.00 0.00 0.00 51 1009.0
20240620213004 77 294 4.0 12.0 0.00 0.00 0.00 49 1008.9